Weather History for Indianapolis, IN

Change the Weather History Date:

Friday, October 14, 2011

  Actual Average (KEYE) Record (KEYE)
Temperature  
Mean Temperature 53 °F 55 °F  
Max Temperature 60 °F 65 °F 75 °F (1996)
Min Temperature 46 °F 46 °F 33 °F (2002)
Degree Days  
Heating Degree Days 12 10  
Month to date heating degree days 114  
Since 1 July heating degree days 175  
Cooling Degree Days 0 0  
Month to date cooling degree days 12  
Year to date cooling degree days 1055  
Growing Degree Days 3 (Base 50)    
Moisture  
Dew Point 45 °F    
Average Humidity 75    
Maximum Humidity 94    
Minimum Humidity 52    
Precipitation  
Precipitation 0.00 in 0.09 in 1.43 in (2003)
Month to date precipitation 1.43  
Year to date precipitation 32.33  
Sea Level Pressure  
Sea Level Pressure 29.63 in    
Wind  
Wind Speed 11 mph (West)    
Max Wind Speed 24 mph    
Max Gust Speed 30 mph    
Visibility 10 miles    
Events      
T = Trace of Precipitation, MM = Missing Value Source: NWS Daily Summary

Daily Weather History Graph

Daily Weather History Graph

Search for Another Location

Airport:

Trip Planner

Search our weather history database for the weather conditions in past years. The results will help you decide how hot, cold, wet, or windy it might be!

Date:

Astronomy

Oct. 14, 2011 Rise Set
Actual Time 7:54 AM EDT 7:07 PM EDT
Civil Twilight 7:26 AM EDT 7:34 PM EDT
Nautical Twilight 6:55 AM EDT 8:05 PM EDT
Astronomical Twilight 6:24 AM EDT 8:37 PM EDT
Moon 8:20 PM EDT (10/14) 10:22 AM EDT (10/14)
Length of Visible Light 12h 07m
Length of Day
11h 13m
Waning Gibbous, 94% of the Moon is Illuminated
Oct 14
Waning Gibbous
Oct 19
Last Quarter
Oct 26
New
Nov 2
First Quarter
Nov 10
Full

Hourly Weather History & Observations

Time (EDT) Temp. Windchill Dew Point Humidity Pressure Visibility Wind Dir Wind Speed Gust Speed Precip Events Conditions
12:15 AM 55.4 °F - 53.6 °F 94% 29.55 in 10.0 mi WSW 12.7 mph - N/A   Scattered Clouds
12:35 AM 55.4 °F - 53.6 °F 94% 29.55 in 10.0 mi West 9.2 mph 18.4 mph N/A   Clear
12:55 AM 53.6 °F - 51.8 °F 94% 29.55 in 10.0 mi West 11.5 mph 19.6 mph N/A   Clear
1:15 AM 53.6 °F - 50.0 °F 88% 29.55 in 10.0 mi West 11.5 mph 17.3 mph N/A   Clear
1:35 AM 53.6 °F - 48.2 °F 82% 29.56 in 10.0 mi West 11.5 mph 19.6 mph N/A   Clear
1:55 AM 51.8 °F - 46.4 °F 82% 29.56 in 10.0 mi WNW 9.2 mph 17.3 mph N/A   Clear
2:15 AM 51.8 °F - 46.4 °F 82% 29.57 in 10.0 mi West 9.2 mph - N/A   Clear
2:35 AM 51.8 °F - 46.4 °F 82% 29.57 in 10.0 mi West 8.1 mph - N/A   Clear
2:55 AM 51.8 °F - 46.4 °F 82% 29.58 in 10.0 mi West 8.1 mph - N/A   Clear
3:15 AM 50.0 °F - 46.4 °F 87% 29.58 in 10.0 mi West 10.4 mph 17.3 mph N/A   Clear
3:35 AM 50.0 °F - 44.6 °F 82% 29.58 in 10.0 mi West 10.4 mph 17.3 mph N/A   Clear
3:55 AM 50.0 °F - 44.6 °F 82% 29.58 in 10.0 mi West 10.4 mph 16.1 mph N/A   Clear
4:15 AM 50.0 °F - 44.6 °F 82% 29.58 in 10.0 mi West 9.2 mph 16.1 mph N/A   Clear
4:35 AM 50.0 °F - 44.6 °F 82% 29.59 in 10.0 mi West 10.4 mph - N/A   Clear
4:55 AM 48.2 °F - 44.6 °F 87% 29.59 in 10.0 mi West 10.4 mph 16.1 mph N/A   Clear
5:15 AM 48.2 °F - 44.6 °F 87% 29.59 in 10.0 mi West 12.7 mph 17.3 mph N/A   Clear
5:35 AM 48.2 °F - 44.6 °F 87% 29.59 in 10.0 mi West 11.5 mph 18.4 mph N/A   Clear
5:55 AM 48.2 °F - 44.6 °F 87% 29.60 in 10.0 mi West 10.4 mph - N/A   Clear
6:15 AM 48.2 °F - 44.6 °F 87% 29.60 in 10.0 mi West 10.4 mph 16.1 mph N/A   Clear
6:35 AM 46.4 °F 41.9 °F 42.8 °F 87% 29.61 in 10.0 mi West 9.2 mph - N/A   Clear
6:55 AM 46.4 °F 41.1 °F 42.8 °F 87% 29.61 in 10.0 mi West 11.5 mph - N/A   Clear
7:15 AM 46.4 °F 42.4 °F 42.8 °F 87% 29.62 in 10.0 mi West 8.1 mph - N/A   Clear
7:35 AM 46.4 °F 41.5 °F 42.8 °F 87% 29.62 in 10.0 mi West 10.4 mph 19.6 mph N/A   Clear
7:55 AM 46.4 °F 41.9 °F 42.8 °F 87% 29.63 in 10.0 mi West 9.2 mph 17.3 mph N/A   Clear
8:15 AM 46.4 °F 41.9 °F 42.8 °F 87% 29.63 in 10.0 mi WSW 9.2 mph - N/A   Clear
8:35 AM 46.4 °F 42.4 °F 42.8 °F 87% 29.64 in 10.0 mi WSW 8.1 mph - N/A   Clear
8:55 AM 48.2 °F - 44.6 °F 87% 29.66 in 10.0 mi WSW 9.2 mph - N/A   Clear
9:15 AM 50.0 °F - 44.6 °F 82% 29.65 in 10.0 mi WSW 8.1 mph - N/A   Clear
9:35 AM 51.8 °F - 44.6 °F 76% 29.66 in 10.0 mi West 9.2 mph - N/A   Clear
9:55 AM 51.8 °F - 44.6 °F 76% 29.66 in 10.0 mi West 10.4 mph 16.1 mph N/A   Clear
10:15 AM 51.8 °F - 44.6 °F 76% 29.66 in 10.0 mi West 11.5 mph 17.3 mph N/A   Mostly Cloudy
10:35 AM 55.4 °F - 46.4 °F 72% 29.66 in 10.0 mi West 9.2 mph 17.3 mph N/A   Mostly Cloudy
10:55 AM 53.6 °F - 46.4 °F 77% 29.66 in 10.0 mi WSW 8.1 mph - N/A   Overcast
11:15 AM 55.4 °F - 46.4 °F 72% 29.66 in 10.0 mi WSW 11.5 mph - N/A   Mostly Cloudy
11:35 AM 55.4 °F - 46.4 °F 72% 29.67 in 10.0 mi WSW 11.5 mph - N/A   Overcast
11:55 AM 57.2 °F - 46.4 °F 67% 29.68 in 10.0 mi West 11.5 mph 18.4 mph N/A   Overcast
12:15 PM 59.0 °F - 46.4 °F 63% 29.68 in 10.0 mi West 16.1 mph 20.7 mph N/A   Overcast
12:35 PM 59.0 °F - 46.4 °F 63% 29.68 in 10.0 mi West 13.8 mph 19.6 mph N/A   Overcast
12:55 PM 59.0 °F - 46.4 °F 63% 29.68 in 10.0 mi West 11.5 mph 19.6 mph N/A   Scattered Clouds
1:15 PM 60.8 °F - 46.4 °F 59% 29.68 in 10.0 mi West 15.0 mph 21.9 mph N/A   Mostly Cloudy
1:35 PM 59.0 °F - 44.6 °F 59% 29.67 in 10.0 mi West 16.1 mph 25.3 mph N/A   Overcast
1:55 PM 60.8 °F - 44.6 °F 55% 29.68 in 10.0 mi West 16.1 mph 25.3 mph N/A   Mostly Cloudy
2:15 PM 59.0 °F - 44.6 °F 59% 29.68 in 10.0 mi WNW 13.8 mph 23.0 mph N/A   Mostly Cloudy
2:35 PM 59.0 °F - 42.8 °F 55% 29.68 in 10.0 mi WNW 15.0 mph 24.2 mph N/A   Mostly Cloudy
3:15 PM 60.8 °F - 42.8 °F 52% 29.69 in 10.0 mi West 13.8 mph 25.3 mph N/A   Mostly Cloudy
3:35 PM 59.0 °F - 42.8 °F 55% 29.69 in 10.0 mi West 10.4 mph 21.9 mph N/A   Mostly Cloudy
3:55 PM 60.8 °F - 42.8 °F 52% 29.69 in 10.0 mi West 17.3 mph 25.3 mph N/A   Mostly Cloudy
4:15 PM 60.8 °F - 42.8 °F 52% 29.69 in 10.0 mi West 18.4 mph 23.0 mph N/A   Mostly Cloudy
4:35 PM 60.8 °F - 42.8 °F 52% 29.69 in 10.0 mi West 13.8 mph 26.5 mph N/A   Mostly Cloudy
4:55 PM 60.8 °F - 42.8 °F 52% 29.69 in 10.0 mi West 24.2 mph 29.9 mph N/A   Mostly Cloudy
5:15 PM 60.8 °F - 42.8 °F 52% 29.69 in 10.0 mi West 15.0 mph 26.5 mph N/A   Mostly Cloudy
5:35 PM 55.4 °F - 44.6 °F 67% 29.70 in 7.0 mi West 12.7 mph 23.0 mph N/A Rain Light Rain
5:55 PM 59.0 °F - 44.6 °F 59% 29.70 in 10.0 mi West 9.2 mph 18.4 mph N/A   Mostly Cloudy
6:15 PM 59.0 °F - 44.6 °F 59% 29.70 in 10.0 mi West 12.7 mph 17.3 mph N/A   Scattered Clouds
6:35 PM 57.2 °F - 42.8 °F 59% 29.70 in 10.0 mi West 12.7 mph 19.6 mph N/A   Scattered Clouds
6:55 PM 57.2 °F - 42.8 °F 59% 29.71 in 10.0 mi West 11.5 mph 19.6 mph N/A   Mostly Cloudy
7:15 PM 57.2 °F - 42.8 °F 59% 29.71 in 10.0 mi West 12.7 mph 20.7 mph N/A   Mostly Cloudy
7:35 PM 55.4 °F - 41.0 °F 58% 29.72 in 10.0 mi WNW 8.1 mph - N/A   Scattered Clouds
7:55 PM 55.4 °F - 41.0 °F 58% 29.73 in 10.0 mi West 11.5 mph 16.1 mph N/A   Scattered Clouds
8:15 PM 55.4 °F - 41.0 °F 58% 29.74 in 10.0 mi West 11.5 mph 17.3 mph N/A   Clear
8:35 PM 53.6 °F - 41.0 °F 62% 29.74 in 10.0 mi West 11.5 mph 18.4 mph N/A   Clear
8:55 PM 53.6 °F - 41.0 °F 62% 29.75 in 10.0 mi West 12.7 mph 18.4 mph N/A   Clear
9:15 PM 53.6 °F - 41.0 °F 62% 29.75 in 10.0 mi West 11.5 mph 20.7 mph N/A   Clear
9:35 PM 53.6 °F - 41.0 °F 62% 29.76 in 10.0 mi West 10.4 mph 18.4 mph N/A   Clear
9:55 PM 51.8 °F - 41.0 °F 67% 29.76 in 10.0 mi West 10.4 mph 16.1 mph N/A   Clear
10:15 PM 51.8 °F - 41.0 °F 67% 29.76 in 10.0 mi West 12.7 mph 17.3 mph N/A   Clear
10:55 PM 51.8 °F - 41.0 °F 67% 29.76 in 10.0 mi West 10.4 mph 18.4 mph N/A   Clear
11:15 PM 51.8 °F - 41.0 °F 67% 29.76 in 10.0 mi West 8.1 mph - N/A   Clear
11:35 PM 51.8 °F - 41.0 °F 67% 29.76 in 10.0 mi West 12.7 mph 20.7 mph N/A   Clear
11:55 PM 51.8 °F - 41.0 °F 67% 29.77 in 10.0 mi West 15.0 mph 20.7 mph N/A   Clear